Time,TemperatureF,DewpointF,PressureIn,WindDirection,WindDirectionDegrees,WindSpeedMPH,WindSpeedGustMPH,Humidity,HourlyPrecipIn,Conditions,Clouds,dailyrainin,SoftwareType,DateUTC
2013-01-06 16:12:00,43.0,31.0,-100.00,WSW,255,1.0,7.0,62,0.00,,,-99.99,,2013-01-06 21:12:00,
2013-01-06 16:22:00,43.0,31.0,-100.00,North,-999,-999.0,-999.0,63,0.00,,,-99.99,,2013-01-06 21:22:00,
2013-01-06 16:33:00,43.0,31.0,-100.00,North,-999,-999.0,-999.0,63,0.00,,,-99.99,,2013-01-06 21:33:00,
2013-01-06 16:42:00,43.0,31.0,-100.00,West,275,2.0,7.0,63,0.00,,,-99.99,,2013-01-06 21:42:00,
2013-01-06 16:52:00,43.0,32.0,-100.00,WSW,240,2.0,4.0,65,0.00,,,-99.99,,2013-01-06 21:52:00,
2013-01-06 17:02:00,43.0,32.0,-100.00,WSW,240,2.0,4.0,65,0.00,,,-99.99,,2013-01-06 22:02:00,
2013-01-06 17:12:00,43.0,32.0,-100.00,WNW,290,2.0,6.0,65,0.00,,,-99.99,,2013-01-06 22:12:00,
2013-01-06 17:22:00,43.0,32.0,-100.00,WNW,290,2.0,6.0,65,0.00,,,-99.99,,2013-01-06 22:22:00,
2013-01-06 17:33:00,42.0,32.0,-100.00,WNW,290,1.0,4.0,66,0.00,,,-99.99,,2013-01-06 22:33:00,
2013-01-06 17:43:00,42.0,32.0,-100.00,West,280,2.0,3.0,67,0.00,,,-99.99,,2013-01-06 22:43:00,
2013-01-06 17:52:00,42.0,32.0,-100.00,West,270,2.0,4.0,69,0.00,,,-99.99,,2013-01-06 22:52:00,
2013-01-06 18:02:00,42.0,32.0,-100.00,West,270,2.0,4.0,69,0.00,,,-99.99,,2013-01-06 23:02:00,
2013-01-06 18:13:00,42.0,32.0,-100.00,SW,230,1.0,5.0,69,0.00,,,-99.99,,2013-01-06 23:13:00,
2013-01-06 18:22:00,41.0,32.0,-100.00,WSW,245,0.0,3.0,70,0.00,,,-99.99,,2013-01-06 23:22:00,
2013-01-06 18:33:00,41.0,32.0,-100.00,WSW,245,0.0,3.0,70,0.00,,,-99.99,,2013-01-06 23:33:00,
2013-01-06 18:43:00,42.0,33.0,-100.00,WSW,255,1.0,3.0,71,0.00,,,-99.99,,2013-01-06 23:43:00,
2013-01-06 18:52:00,41.0,33.0,-100.00,SW,230,1.0,5.0,72,0.00,,,-99.99,,2013-01-06 23:52:00,
2013-01-06 19:02:00,41.0,33.0,-100.00,SW,230,1.0,5.0,72,0.00,,,-99.99,,2013-01-07 00:02:00,
2013-01-06 19:12:00,42.0,33.0,-100.00,WSW,250,2.0,6.0,71,0.00,,,-99.99,,2013-01-07 00:12:00,
2013-01-06 19:23:00,42.0,33.0,-100.00,SW,230,2.0,6.0,72,0.00,,,-99.99,,2013-01-07 00:23:00,
2013-01-06 19:33:00,42.0,33.0,-100.00,SW,230,2.0,6.0,72,0.00,,,-99.99,,2013-01-07 00:33:00,
2013-01-06 19:42:00,41.0,33.0,-100.00,WSW,250,1.0,6.0,72,0.00,,,-99.99,,2013-01-07 00:42:00,
2013-01-06 19:53:00,41.0,33.0,-100.00,WSW,255,1.0,3.0,73,0.00,,,-99.99,,2013-01-07 00:53:00,
2013-01-06 20:02:00,41.0,33.0,-100.00,WSW,255,1.0,3.0,73,0.00,,,-99.99,,2013-01-07 01:02:00,
2013-01-06 20:12:00,41.0,33.0,-100.00,West,265,1.0,2.0,73,0.00,,,-99.99,,2013-01-07 01:12:00,
2013-01-06 20:23:00,41.0,33.0,-100.00,SSW,200,1.0,4.0,75,0.00,,,-99.99,,2013-01-07 01:23:00,
2013-01-06 20:32:00,41.0,33.0,-100.00,SSW,200,1.0,4.0,75,0.00,,,-99.99,,2013-01-07 01:32:00,
2013-01-06 20:42:00,41.0,33.0,-100.00,West,280,0.0,4.0,75,0.00,,,-99.99,,2013-01-07 01:42:00,
2013-01-06 20:52:00,41.0,34.0,-100.00,WNW,300,0.0,4.0,76,0.00,,,-99.99,,2013-01-07 01:52:00,
2013-01-06 21:02:00,41.0,34.0,-100.00,WNW,300,0.0,4.0,76,0.00,,,-99.99,,2013-01-07 02:02:00,
2013-01-06 21:12:00,41.0,35.0,-100.00,North,0,1.0,7.0,77,0.00,,,-99.99,,2013-01-07 02:12:00,
2013-01-06 21:23:00,41.0,34.0,-100.00,West,275,2.0,7.0,77,0.00,,,-99.99,,2013-01-07 02:23:00,
2013-01-06 21:32:00,41.0,34.0,-100.00,West,275,2.0,7.0,77,0.00,,,-99.99,,2013-01-07 02:32:00,
2013-01-06 21:42:00,41.0,35.0,-100.00,North,5,1.0,4.0,79,0.00,,,-99.99,,2013-01-07 02:42:00,
2013-01-06 21:52:00,41.0,35.0,-100.00,North,5,3.0,4.0,80,0.00,,,-99.99,,2013-01-07 02:52:00,
2013-01-06 22:02:00,41.0,35.0,-100.00,North,5,3.0,4.0,80,0.00,,,-99.99,,2013-01-07 03:02:00,
2013-01-06 22:12:00,41.0,35.0,-100.00,NE,35,1.0,4.0,81,0.00,,,-99.99,,2013-01-07 03:12:00,
2013-01-06 22:22:00,40.0,35.0,-100.00,SE,135,0.0,2.0,82,0.00,,,-99.99,,2013-01-07 03:22:00,
2013-01-06 22:33:00,40.0,35.0,-100.00,SE,135,0.0,2.0,82,0.00,,,-99.99,,2013-01-07 03:33:00,
2013-01-06 22:43:00,41.0,36.0,-100.00,NNW,330,4.0,12.0,83,0.00,,,-99.99,,2013-01-07 03:43:00,
2013-01-06 22:52:00,41.0,36.0,-100.00,NW,305,7.0,12.0,83,0.00,,,-99.99,,2013-01-07 03:52:00,
2013-01-06 23:02:00,41.0,36.0,-100.00,NW,305,7.0,12.0,83,0.00,,,-99.99,,2013-01-07 04:02:00,
2013-01-06 23:12:00,40.0,36.0,-100.00,NNW,340,5.0,16.0,83,0.00,,,-99.99,,2013-01-07 04:12:00,
2013-01-06 23:22:00,40.0,35.0,-100.00,NNW,330,7.0,16.0,81,0.00,,,-99.99,,2013-01-07 04:22:00,
2013-01-06 23:32:00,40.0,35.0,-100.00,NNW,330,7.0,16.0,81,0.00,,,-99.99,,2013-01-07 04:32:00,
2013-01-06 23:42:00,40.0,35.0,-100.00,North,0,7.0,17.0,81,0.00,,,-99.99,,2013-01-07 04:42:00,
2013-01-06 23:52:00,40.0,35.0,-100.00,NNW,330,5.0,16.0,80,0.00,,,-99.99,,2013-01-07 04:52:00,